SCP
-0 -0 -0 -0 -0 -0 -0 -0 -0 -0 -0 -0 -0 -0 -0 -0 -0 -0 -0 0 0 0 0 0 0 0 0 0 0 0 0 0 0 0 0 0 0 0 0 0 0 0 0
-0 -0 -0 -0 -0 -0 -0 -0 -0 -0 -0 -0 -0 -0 -0 -0 -0 0 0 0 0 0 0 0 0 0 0 0 0 0 0 0 0 0 0 0 0 0 0 0 0 0 0
-0 -0 -0 -0 -0 -0 -0 -0 -0 -0 0 0 0 0 0 0 0 0 0 0 0 0 0 0 0 0 0 0 0 0 0 0 0 0 0 0 0 0 0 0 0 0 0
-0 -0 -0 -0 -0 -0 -0 -0 -0 0 0 0 0 0 0 0 0 0 0 0 0 0 0 0 0 0 0 0 0 0 0 0 0 0 0 0 0 0 0 0 0 0 0
-0 -0 -0 -0 -0 -0 -0 -0 -0 0 0 0 0 0 0 0 0 0 0 0 0 0 0 0 0 0 0 0 1 0 0 0 0 0 0 0 0 0 0 0 0 0 0
-0 -0 -0 -0 -0 -0 -0 0 0 0 0 0 0 0 0 0 0 0 0 0 0 0 0 0 0 0 0 0 0 0 0 0 0 0 0 0 0 0 0 0 0 0 0
-0 -0 -0 -0 -0 -0 -0 0 0 0 0 0 0 0 0 0 0 0 0 0 0 0 0 0 0 0 0 0 0 0 0 0 0 0 0 0 0 0 0 0 0 0 0
-0 -0 -0 -0 -0 0 0 0 0 0 0 0 0 0 0 0 0 0 0 0 0 0 0 0 0 0 0 0 0 0 0 0 0 0 0 0 0 0 0 0 0 0 0
-0 -0 0 0 0 0 0 0 0 0 0 0 0 0 0 0 0 0 0 0 0 0 0 0 0 0 0 0 0 0 0 0 0 0 0 0 0 0 0 0 0 0 0
-0 -0 0 0 0 0 0 0 0 0 0 0 0 0 0 0 0 0 0 0 0 0 0 0 0 0 0 0 0 0 0 0 0 0 0 0 0 0 0 0 0 0 0
0 0 0 0 0 0 0 0 0 0 0 0 0 0 0 0 0 0 0 0 0 1 0 0 0 0 0 0 0 0 0 0 0 0 0 0 0 0 0 0 0 0 0
0 0 0 0 0 0 0 0 0 0 0 0 0 0 0 0 0 0 0 0 0 0 0 0 0 0 0 0 0 0 0 0 0 0 0 0 0 0 0 0 0 0 0
0 0 0 0 0 0 0 -0 0 -0 0 0 0 0 0 0 0 0 0 0 0 0 0 0 0 0 0 0 0 0 0 0 0 0 0 0 0 0 0 -0 0 0 0
0 0 0 0 0 0 0 0 0 0 0 0 0 0 0 0 0 0 0 0 0 0 0 0 0 0 0 0 0 0 0 0 0 0 0 0 0 0 0 0 0 0 0
0 0 0 0 0 0 0 0 0 0 0 0 0 0 0 0 0 0 0 0 0 0 0 0 0 0 0 0 0 0 0 0 0 0 0 0 0 0 0 0 0 0 0
0 0 0 0 0 0 0 0 0 0 0 0 0 0 0 0 0 0 0 0 0 0 0 0 0 0 0 0 0 0 0 0 0 0 0 0 0 0 0 0 0 0 0
0 0 0 0 0 0 0 0 0 0 0 0 0 0 0 0 0 0 0 0 0 0 0 0 0 0 0 0 0 0 0 0 0 0 0 0 0 0 0 0 0 0 0
0 0 0 0 0 0 0 0 0 0 0 0 0 0 0 0 0 0 0 0 0 0 0 0 0 0 0 0 0 0 0 0 0 0 0 0 0 0 0 0 0 0 0
0 0 0 0 0 0 0 0 0 0 0 0 0 0 0 0 0 0 0 0 0 0 0 0 0 0 0 0 0 0 0 0 0 0 0 0 0 0 1 0 0 0 0
0 0 0 0 0 0 0 0 0 0 0 0 0 0 0 0 0 0 0 0 0 0 0 0 0 0 0 0 0 0 0 0 0 0 0 0 0 0 0 0 0 0 0
0 0 0 0 0 0 0 0 0 0 0 0 0 0 0 0 0 0 0 0 0 0 0 0 0 0 0 0 0 0 0 0 0 0 0 0 0 0 0 0 0 0 0
0 0 0 0 0 0 0 0 0 0 0 0 0 0 0 0 0 0 0 0 0 0 0 0 0 0 0 0 0 0 0 0 0 0 0 0 0 0 0 0 0 0 0
0 0 0 0 0 0 0 0 0 0 0 0 0 0 0 0 0 0 0 0 0 0 0 0 0 -0 0 0 0 0 0 0 0 0 0 0 0 0 0 0 0 0 0
0 0 0 0 0 0 0 0 0 0 0 0 0 0 0 0 0 0 0 0 0 0 0 0 0 0 -0 0 0 0 0 0 0 0 0 0 0 0 0 0 0 0 0
0 0 0 0 0 0 0 0 0 0 0 0 0 0 0 0 -0 -0 0 0 0 0 0 0 0 -0 0 0 0 0 0 0 0 0 0 0 0 0 0 0 0 0 0
0 0 0 0 0 0 0 0 0 0 0 0 0 0 -0 -0 0 -0 0 0 0 0 0 0 0 0 0 0 0 0 0 0 0 0 0 0 0 0 0 0 0 0 0
Wind_Speed_500mb
19 21 20 21 20 20 28 30 28 24 20 15 10 10 11 11 12 13 13 14 15 14 15 15 16 16 16 16 16 18 19 19 18 21 20 22 21 20 19 18 18 18 18
17 19 18 17 18 18 15 16 18 18 16 13 10 8 8 12 13 15 17 16 15 16 14 13 14 15 15 15 17 23 23 21 19 20 19 17 15 16 15 15 15 16 15
17 17 15 14 13 14 12 13 11 10 8 8 8 9 9 11 14 17 18 18 16 15 13 11 10 12 14 17 22 21 20 21 18 14 15 16 15 9 11 10 8 6 3
14 15 14 12 11 11 10 10 8 8 8 6 5 9 11 11 15 19 18 17 16 14 12 8 7 8 11 15 16 15 15 15 15 16 16 18 15 13 13 11 7 3 1
12 12 12 11 10 10 9 8 7 6 5 4 4 6 10 14 17 18 18 18 16 15 12 10 9 8 8 11 12 13 12 10 11 13 14 15 15 13 14 15 13 8 2
12 13 12 10 9 10 9 8 7 6 5 3 4 7 10 15 17 17 18 17 15 13 12 10 9 9 8 7 7 7 4 3 7 10 12 12 12 13 16 15 12 10 7
12 14 14 13 12 12 11 9 6 5 6 4 4 7 9 13 17 17 17 16 14 12 9 7 6 6 7 7 7 4 2 0 3 7 9 11 12 13 15 17 15 11 10
17 16 15 15 13 12 13 12 9 7 8 5 3 3 8 11 14 16 18 19 15 13 11 10 10 9 8 7 6 5 3 2 2 5 9 12 14 15 17 18 16 13 12
19 16 15 14 15 17 17 14 15 12 9 6 2 2 5 8 12 15 18 19 19 18 16 14 13 15 15 15 14 11 7 5 4 4 10 12 16 18 20 21 19 14 12
17 18 18 15 15 14 14 13 13 13 11 8 6 7 9 12 15 17 19 21 22 21 20 16 17 16 19 20 20 18 16 12 11 7 7 10 15 20 23 23 19 14 10
22 22 17 15 14 16 15 13 12 12 11 11 10 12 14 16 18 20 25 29 30 30 26 25 26 23 20 21 25 25 23 20 17 12 10 12 14 19 21 19 16 14 11
30 29 27 27 25 23 21 24 24 23 19 21 22 22 23 23 23 25 28 32 33 35 36 36 33 33 29 27 28 33 31 27 23 16 13 16 16 16 16 16 15 12 11
28 26 28 28 26 25 26 27 27 31 31 31 32 33 33 33 35 35 34 36 36 38 38 40 41 45 50 49 43 42 38 34 29 21 18 17 16 14 16 17 14 8 4
25 29 29 30 31 34 33 32 31 33 38 39 38 33 29 28 26 25 27 29 32 33 34 40 45 40 46 50 49 49 39 35 31 28 26 24 18 17 19 17 10 6 5
33 30 29 26 30 34 32 32 34 39 46 47 47 42 29 26 26 27 28 27 23 23 27 34 41 46 47 43 38 35 37 36 38 34 26 24 22 22 19 16 15 12 8
26 25 23 23 28 30 32 34 38 44 50 58 59 50 29 24 23 25 23 19 18 21 24 27 29 32 38 38 38 44 42 38 31 42 34 31 29 29 29 21 21 20 9
17 19 20 18 24 28 30 33 37 44 51 58 61 42 24 27 30 26 29 25 20 28 31 38 40 40 39 32 29 31 35 38 42 41 39 37 35 35 30 20 20 18 9
11 16 19 21 26 30 30 34 38 44 47 54 42 32 25 26 31 29 27 28 31 30 34 43 41 33 29 30 33 29 30 31 32 36 35 33 35 35 31 25 23 15 9
17 25 27 28 29 32 35 38 44 47 51 44 37 33 30 30 32 32 31 33 33 34 34 32 33 32 28 25 27 25 25 29 35 29 29 29 38 37 33 24 17 15 14
17 22 25 28 30 35 42 52 56 53 43 37 34 36 36 34 36 39 39 37 32 30 29 31 31 29 30 26 25 26 23 26 31 35 30 33 36 37 33 26 16 18 12
21 22 25 28 35 46 55 57 44 40 38 33 33 33 32 32 31 29 27 28 27 27 28 28 29 28 24 24 25 23 23 30 27 26 28 36 36 39 31 26 22 18 11
16 18 23 34 44 51 47 46 47 46 40 42 37 37 31 29 31 32 28 25 27 32 30 30 29 28 27 23 21 20 17 13 17 25 31 36 36 39 32 31 21 14 13
14 23 34 43 47 43 47 50 45 42 39 36 42 41 38 31 29 30 31 28 26 28 28 28 31 31 26 23 21 19 13 11 19 16 31 36 38 33 35 25 21 17 14
24 31 41 46 39 41 49 51 47 43 42 45 41 43 39 31 29 29 29 28 27 29 30 24 22 23 24 23 18 21 25 11 12 16 27 39 40 41 32 25 21 18 16
27 37 41 35 32 41 48 50 45 42 34 39 39 39 34 31 35 26 22 17 13 21 16 13 13 18 17 18 16 16 16 16 19 19 35 28 33 30 26 23 20 18 20
33 40 33 32 35 38 47 47 41 41 36 37 37 31 30 32 40 32 19 9 5 6 9 16 18 16 13 10 11 10 11 17 15 18 33 30 19 22 23 20 19 21 23
Wind_Direction_500mb
79 95 110 106 105 101 113 122 130 136 141 142 141 144 155 163 165 161 153 144 143 140 141 140 138 133 121 110 106 101 104 101 99 96 92 85 76 81 85 81 80 93 105
92 91 101 101 101 94 91 93 108 122 128 135 145 155 158 161 163 154 145 137 133 129 126 126 130 126 116 106 108 106 100 95 97 94 84 78 65 67 77 87 92 84 81
92 92 97 97 95 91 79 76 69 64 76 105 131 149 164 159 150 142 136 135 131 123 125 130 130 127 118 106 115 110 105 106 99 80 71 84 87 83 72 72 62 58 55
88 86 90 91 84 81 75 72 70 54 40 46 90 136 155 157 152 144 136 127 122 119 120 122 133 137 133 127 126 123 114 100 80 70 81 85 80 64 50 39 43 45 12
78 73 70 65 58 52 46 44 46 51 73 98 122 138 150 160 158 148 142 136 131 122 113 106 98 112 131 141 143 133 119 102 73 59 69 73 76 43 35 23 14 22 54
88 84 74 61 54 46 36 34 36 48 71 102 140 153 156 161 163 156 150 145 137 127 119 112 110 101 113 136 148 156 144 83 40 32 37 37 35 23 17 14 11 350 329
97 85 80 75 67 53 29 35 52 81 91 102 150 170 169 170 171 167 168 167 162 156 149 143 138 159 168 175 186 205 235 103 32 11 11 3 2 4 6 4 358 345 315
86 76 74 67 54 40 37 43 45 56 67 67 75 197 193 189 188 186 191 196 203 200 198 204 207 222 225 227 228 224 227 258 347 3 346 341 342 343 347 351 351 341 316
83 78 69 64 61 51 47 39 35 33 40 44 35 266 251 241 228 222 221 224 225 233 231 224 229 230 238 236 234 228 219 233 212 322 336 327 328 334 339 345 348 342 322
77 70 64 60 57 50 40 29 34 26 20 13 353 314 298 289 276 267 266 265 264 266 263 259 250 239 236 243 240 242 239 232 220 250 300 302 321 329 338 345 348 344 344
65 57 48 38 47 45 49 42 14 24 12 4 344 329 317 303 290 282 277 275 272 269 269 260 256 256 250 245 248 241 241 233 230 243 269 293 310 322 329 345 350 352 357
65 58 51 47 41 35 27 28 21 8 358 352 334 327 317 307 299 291 286 281 279 274 272 269 261 254 253 252 249 247 242 237 234 246 267 291 302 315 325 335 343 344 357
60 51 40 38 34 30 19 19 11 9 6 351 338 332 325 315 301 294 288 282 284 279 274 272 261 258 256 250 240 243 238 234 231 237 247 262 274 290 309 315 319 315 2
57 49 44 41 37 32 25 20 16 9 4 355 348 333 321 315 310 306 298 295 287 285 285 275 274 275 266 254 243 233 227 229 231 245 238 245 255 276 286 291 266 225 164
60 47 40 34 29 24 11 1 353 351 350 350 347 340 315 303 299 300 302 303 306 306 295 286 284 281 278 280 274 265 244 234 238 240 234 226 239 245 250 256 232 213 179
58 51 43 35 22 10 5 357 352 348 347 344 343 341 307 285 294 299 298 302 314 325 325 318 309 301 297 295 283 276 274 272 269 249 246 247 254 241 249 239 225 207 180
46 35 20 11 1 354 349 344 340 340 338 340 339 336 317 286 279 277 280 278 291 315 311 309 307 299 297 291 280 275 264 260 255 257 253 261 261 249 242 238 230 214 215
9 357 353 342 339 338 334 332 331 331 333 336 327 326 311 299 301 284 280 283 292 297 304 306 308 299 291 286 285 282 278 271 258 259 259 256 234 225 235 225 218 201 202
346 332 323 321 323 330 329 327 326 327 328 329 319 315 307 295 288 289 291 294 295 300 307 306 307 297 288 284 279 276 276 273 263 258 251 237 222 217 221 215 208 194 213
307 312 304 316 322 328 330 331 331 333 336 336 325 314 310 304 292 288 288 287 289 294 296 298 303 295 288 275 275 270 266 277 265 253 237 224 220 215 209 200 181 199 209
310 310 310 320 330 334 336 339 344 345 342 340 332 325 313 305 302 297 291 288 289 293 294 298 296 298 289 274 273 268 259 262 257 240 219 214 206 201 196 186 190 178 192
315 321 334 339 340 343 348 349 345 347 348 345 342 336 317 305 296 295 296 304 296 300 291 295 294 295 292 281 256 253 239 226 217 210 207 204 194 180 182 191 191 194 204
338 346 348 345 348 356 355 352 353 352 353 349 346 343 340 330 313 305 293 291 300 300 297 288 291 286 287 286 261 241 242 224 172 187 197 183 176 174 187 188 188 200 220
357 351 346 346 355 359 357 357 354 353 351 353 348 350 350 345 334 318 310 293 280 299 307 293 288 286 289 293 265 254 246 252 203 161 160 165 172 185 190 196 207 214 232
348 346 349 356 1 357 359 359 358 355 348 352 359 1 9 18 360 347 329 313 292 295 299 313 309 291 288 287 266 260 231 223 212 180 162 168 181 191 198 217 232 237 245
346 351 358 4 356 355 359 1 1 0 359 359 10 19 17 19 17 19 22 37 25 341 340 325 316 303 278 286 263 202 192 191 145 167 166 172 176 192 209 219 237 245 249
Wind_Speed_850mb
19 21 20 21 20 20 28 30 28 24 20 15 10 10 11 11 12 13 13 14 15 14 15 15 16 16 16 16 16 18 19 19 18 21 20 22 21 20 19 18 18 18 18
17 19 18 17 18 18 15 16 18 18 16 13 10 8 8 12 13 15 17 16 15 16 14 13 14 15 15 15 17 23 23 21 19 20 19 17 15 16 15 15 15 16 15
17 17 15 14 13 14 12 13 11 10 8 8 8 9 9 11 14 17 18 18 16 15 13 11 10 12 14 17 22 21 20 21 18 14 15 16 15 9 11 10 8 6 3
14 15 14 12 11 11 10 10 8 8 8 6 5 9 11 11 15 19 18 17 16 14 12 8 7 8 11 15 16 15 15 15 15 16 16 18 15 13 13 11 7 3 1
12 12 12 11 10 10 9 8 7 6 5 4 4 6 10 14 17 18 18 18 16 15 12 10 9 8 8 11 12 13 12 10 11 13 14 15 15 13 14 15 13 8 2
12 13 12 10 9 10 9 8 7 6 5 3 4 7 10 15 17 17 18 17 15 13 12 10 9 9 8 7 7 7 4 3 7 10 12 12 12 13 16 15 12 10 7
12 14 14 13 12 12 11 9 6 5 6 4 4 7 9 13 17 17 17 16 14 12 9 7 6 6 7 7 7 4 2 0 3 7 9 11 12 13 15 17 15 11 10
17 16 15 15 13 12 13 12 9 7 8 5 3 3 8 11 14 16 18 19 15 13 11 10 10 9 8 7 6 5 3 2 2 5 9 12 14 15 17 18 16 13 12
19 16 15 14 15 17 17 14 15 12 9 6 2 2 5 8 12 15 18 19 19 18 16 14 13 15 15 15 14 11 7 5 4 4 10 12 16 18 20 21 19 14 12
17 18 18 15 15 14 14 13 13 13 11 8 6 7 9 12 15 17 19 21 22 21 20 16 17 16 19 20 20 18 16 12 11 7 7 10 15 20 23 23 19 14 10
22 22 17 15 14 16 15 13 12 12 11 11 10 12 14 16 18 20 25 29 30 30 26 25 26 23 20 21 25 25 23 20 17 12 10 12 14 19 21 19 16 14 11
30 29 27 27 25 23 21 24 24 23 19 21 22 22 23 23 23 25 28 32 33 35 36 36 33 33 29 27 28 33 31 27 23 16 13 16 16 16 16 16 15 12 11
28 26 28 28 26 25 26 27 27 31 31 31 32 33 33 33 35 35 34 36 36 38 38 40 41 45 50 49 43 42 38 34 29 21 18 17 16 14 16 17 14 8 4
25 29 29 30 31 34 33 32 31 33 38 39 38 33 29 28 26 25 27 29 32 33 34 40 45 40 46 50 49 49 39 35 31 28 26 24 18 17 19 17 10 6 5
33 30 29 26 30 34 32 32 34 39 46 47 47 42 29 26 26 27 28 27 23 23 27 34 41 46 47 43 38 35 37 36 38 34 26 24 22 22 19 16 15 12 8
26 25 23 23 28 30 32 34 38 44 50 58 59 50 29 24 23 25 23 19 18 21 24 27 29 32 38 38 38 44 42 38 31 42 34 31 29 29 29 21 21 20 9
17 19 20 18 24 28 30 33 37 44 51 58 61 42 24 27 30 26 29 25 20 28 31 38 40 40 39 32 29 31 35 38 42 41 39 37 35 35 30 20 20 18 9
11 16 19 21 26 30 30 34 38 44 47 54 42 32 25 26 31 29 27 28 31 30 34 43 41 33 29 30 33 29 30 31 32 36 35 33 35 35 31 25 23 15 9
17 25 27 28 29 32 35 38 44 47 51 44 37 33 30 30 32 32 31 33 33 34 34 32 33 32 28 25 27 25 25 29 35 29 29 29 38 37 33 24 17 15 14
17 22 25 28 30 35 42 52 56 53 43 37 34 36 36 34 36 39 39 37 32 30 29 31 31 29 30 26 25 26 23 26 31 35 30 33 36 37 33 26 16 18 12
21 22 25 28 35 46 55 57 44 40 38 33 33 33 32 32 31 29 27 28 27 27 28 28 29 28 24 24 25 23 23 30 27 26 28 36 36 39 31 26 22 18 11
16 18 23 34 44 51 47 46 47 46 40 42 37 37 31 29 31 32 28 25 27 32 30 30 29 28 27 23 21 20 17 13 17 25 31 36 36 39 32 31 21 14 13
14 23 34 43 47 43 47 50 45 42 39 36 42 41 38 31 29 30 31 28 26 28 28 28 31 31 26 23 21 19 13 11 19 16 31 36 38 33 35 25 21 17 14
24 31 41 46 39 41 49 51 47 43 42 45 41 43 39 31 29 29 29 28 27 29 30 24 22 23 24 23 18 21 25 11 12 16 27 39 40 41 32 25 21 18 16
27 37 41 35 32 41 48 50 45 42 34 39 39 39 34 31 35 26 22 17 13 21 16 13 13 18 17 18 16 16 16 16 19 19 35 28 33 30 26 23 20 18 20
33 40 33 32 35 38 47 47 41 41 36 37 37 31 30 32 40 32 19 9 5 6 9 16 18 16 13 10 11 10 11 17 15 18 33 30 19 22 23 20 19 21 23
Wind_Direction_850mb
79 95 110 106 105 101 113 122 130 136 141 142 141 144 155 163 165 161 153 144 143 140 141 140 138 133 121 110 106 101 104 101 99 96 92 85 76 81 85 81 80 93 105
92 91 101 101 101 94 91 93 108 122 128 135 145 155 158 161 163 154 145 137 133 129 126 126 130 126 116 106 108 106 100 95 97 94 84 78 65 67 77 87 92 84 81
92 92 97 97 95 91 79 76 69 64 76 105 131 149 164 159 150 142 136 135 131 123 125 130 130 127 118 106 115 110 105 106 99 80 71 84 87 83 72 72 62 58 55
88 86 90 91 84 81 75 72 70 54 40 46 90 136 155 157 152 144 136 127 122 119 120 122 133 137 133 127 126 123 114 100 80 70 81 85 80 64 50 39 43 45 12
78 73 70 65 58 52 46 44 46 51 73 98 122 138 150 160 158 148 142 136 131 122 113 106 98 112 131 141 143 133 119 102 73 59 69 73 76 43 35 23 14 22 54
88 84 74 61 54 46 36 34 36 48 71 102 140 153 156 161 163 156 150 145 137 127 119 112 110 101 113 136 148 156 144 83 40 32 37 37 35 23 17 14 11 350 329
97 85 80 75 67 53 29 35 52 81 91 102 150 170 169 170 171 167 168 167 162 156 149 143 138 159 168 175 186 205 235 103 32 11 11 3 2 4 6 4 358 345 315
86 76 74 67 54 40 37 43 45 56 67 67 75 197 193 189 188 186 191 196 203 200 198 204 207 222 225 227 228 224 227 258 347 3 346 341 342 343 347 351 351 341 316
83 78 69 64 61 51 47 39 35 33 40 44 35 266 251 241 228 222 221 224 225 233 231 224 229 230 238 236 234 228 219 233 212 322 336 327 328 334 339 345 348 342 322
77 70 64 60 57 50 40 29 34 26 20 13 353 314 298 289 276 267 266 265 264 266 263 259 250 239 236 243 240 242 239 232 220 250 300 302 321 329 338 345 348 344 344
65 57 48 38 47 45 49 42 14 24 12 4 344 329 317 303 290 282 277 275 272 269 269 260 256 256 250 245 248 241 241 233 230 243 269 293 310 322 329 345 350 352 357
65 58 51 47 41 35 27 28 21 8 358 352 334 327 317 307 299 291 286 281 279 274 272 269 261 254 253 252 249 247 242 237 234 246 267 291 302 315 325 335 343 344 357
60 51 40 38 34 30 19 19 11 9 6 351 338 332 325 315 301 294 288 282 284 279 274 272 261 258 256 250 240 243 238 234 231 237 247 262 274 290 309 315 319 315 2
57 49 44 41 37 32 25 20 16 9 4 355 348 333 321 315 310 306 298 295 287 285 285 275 274 275 266 254 243 233 227 229 231 245 238 245 255 276 286 291 266 225 164
60 47 40 34 29 24 11 1 353 351 350 350 347 340 315 303 299 300 302 303 306 306 295 286 284 281 278 280 274 265 244 234 238 240 234 226 239 245 250 256 232 213 179
58 51 43 35 22 10 5 357 352 348 347 344 343 341 307 285 294 299 298 302 314 325 325 318 309 301 297 295 283 276 274 272 269 249 246 247 254 241 249 239 225 207 180
46 35 20 11 1 354 349 344 340 340 338 340 339 336 317 286 279 277 280 278 291 315 311 309 307 299 297 291 280 275 264 260 255 257 253 261 261 249 242 238 230 214 215
9 357 353 342 339 338 334 332 331 331 333 336 327 326 311 299 301 284 280 283 292 297 304 306 308 299 291 286 285 282 278 271 258 259 259 256 234 225 235 225 218 201 202
346 332 323 321 323 330 329 327 326 327 328 329 319 315 307 295 288 289 291 294 295 300 307 306 307 297 288 284 279 276 276 273 263 258 251 237 222 217 221 215 208 194 213
307 312 304 316 322 328 330 331 331 333 336 336 325 314 310 304 292 288 288 287 289 294 296 298 303 295 288 275 275 270 266 277 265 253 237 224 220 215 209 200 181 199 209
310 310 310 320 330 334 336 339 344 345 342 340 332 325 313 305 302 297 291 288 289 293 294 298 296 298 289 274 273 268 259 262 257 240 219 214 206 201 196 186 190 178 192
315 321 334 339 340 343 348 349 345 347 348 345 342 336 317 305 296 295 296 304 296 300 291 295 294 295 292 281 256 253 239 226 217 210 207 204 194 180 182 191 191 194 204
338 346 348 345 348 356 355 352 353 352 353 349 346 343 340 330 313 305 293 291 300 300 297 288 291 286 287 286 261 241 242 224 172 187 197 183 176 174 187 188 188 200 220
357 351 346 346 355 359 357 357 354 353 351 353 348 350 350 345 334 318 310 293 280 299 307 293 288 286 289 293 265 254 246 252 203 161 160 165 172 185 190 196 207 214 232
348 346 349 356 1 357 359 359 358 355 348 352 359 1 9 18 360 347 329 313 292 295 299 313 309 291 288 287 266 260 231 223 212 180 162 168 181 191 198 217 232 237 245
346 351 358 4 356 355 359 1 1 0 359 359 10 19 17 19 17 19 22 37 25 341 340 325 316 303 278 286 263 202 192 191 145 167 166 172 176 192 209 219 237 245 249